Location: Cucq
(50.4773°N, 1.6202°E)
Time: 15:42:13
(UTC+00:00)

Cosmos 2034 Rocket - Pass Details

Date: 07 August 2020
Orbit: 958 x 1001 km, 82.9° (Epoch: 25 September)

Event Time Altitude Azimuth Distance (km) Brightness Sun altitude
Exits shadow 00:35:49 42° 162° (SSE) 1,364 4.3 -22.7°
Maximum altitude 00:37:58 68° 95° (E) 1,053 4.1 -22.6°
Drops below altitude 10° 00:44:14 10° 14° (NNE) 2,761 7.5 -22.5°
Sets 00:46:47 0° 12° (NNE) 3,719 8.6 -22.4°
